When you browse on this site, cookies collect data to enhance your experience and personalize the content and advertising you see.
Visit our Privacy Policy to learn more. By continuing to use the site, you agree to this use of cookies and data.
  • In Denmark
  • List of Countries
  • For 7 days
  • Water Temperature
  • Weather Map
  • Weather Widgets
  • user-avatar
    Login

    Hourly Weather Eisenstadt

    Today, 28 February, Friday

    Time Temperature Precipitation Wind Pressure Humidity
    00:00 0°C° 0 mm 5 mps 707 mmHg 66%
    01:00 -1°C° 0 mm 4 mps 707 mmHg 69%
    02:00 -1°C° 0.2 mm 4 mps 708 mmHg 73%
    03:00 -1°C° 0.2 mm 5 mps 708 mmHg 76%
    04:00 -2°C° 0.2 mm 6 mps 708 mmHg 80%
    05:00 -2°C° 0.5 mm 7 mps 710 mmHg 79%
    06:00 -2°C° 0.5 mm 8 mps 711 mmHg 79%
    07:00 -3°C° 0.5 mm 9 mps 713 mmHg 79%
    08:00 -1°C° 0 mm 9 mps 714 mmHg 74%
    09:00 -1°C° 0 mm 9 mps 716 mmHg 68%
    10:00 0°C° 0 mm 9 mps 717 mmHg 63%
    11:00 +1°C° 0.1 mm 9 mps 718 mmHg 64%
    12:00 +1°C° 0.1 mm 9 mps 719 mmHg 65%
    13:00 +1°C° 0.1 mm 9 mps 720 mmHg 66%
    14:00 +1°C° 0.1 mm 8 mps 720 mmHg 64%
    15:00 +1°C° 0.1 mm 8 mps 721 mmHg 62%
    16:00 0°C° 0.1 mm 7 mps 722 mmHg 61%
    17:00 -1°C° 0 mm 6 mps 722 mmHg 65%
    18:00 -1°C° 0 mm 4 mps 722 mmHg 69%
    19:00 -1°C° 0 mm 3 mps 723 mmHg 72%
    20:00 -1°C° 0 mm 2 mps 723 mmHg 74%
    21:00 -2°C° 0 mm 2 mps 723 mmHg 76%
    22:00 -2°C° 0 mm 2 mps 724 mmHg 77%
    23:00 0°C° 0 mm 1 mps 723 mmHg 76%

    Tomorrow, 29 February, Saturday

    Time Temperature Precipitation Wind Pressure Humidity
    00:00 0°C° 0 mm 1 mps 723 mmHg 74%
    01:00 0°C° 0 mm 1 mps 723 mmHg 72%
    02:00 -2°C° 0 mm 2 mps 723 mmHg 72%
    03:00 -2°C° 0 mm 2 mps 722 mmHg 71%
    04:00 -2°C° 0 mm 3 mps 721 mmHg 71%
    05:00 -2°C° 0 mm 3 mps 721 mmHg 70%
    06:00 -2°C° 0 mm 3 mps 721 mmHg 70%
    07:00 -3°C° 0 mm 4 mps 720 mmHg 69%
    08:00 -1°C° 0 mm 4 mps 720 mmHg 64%
    09:00 0°C° 0 mm 4 mps 719 mmHg 59%
    10:00 +3°C° 0 mm 4 mps 719 mmHg 54%
    11:00 +3°C° 0 mm 5 mps 718 mmHg 53%
    12:00 +5°C° 0 mm 5 mps 718 mmHg 52%
    13:00 +6°C° 0 mm 5 mps 717 mmHg 51%
    14:00 +6°C° 0 mm 5 mps 716 mmHg 53%
    15:00 +5°C° 0 mm 5 mps 715 mmHg 54%
    16:00 +5°C° 0 mm 5 mps 714 mmHg 55%
    17:00 +3°C° 0 mm 5 mps 714 mmHg 58%
    18:00 +3°C° 0 mm 6 mps 714 mmHg 62%
    19:00 +2°C° 0 mm 6 mps 714 mmHg 65%
    20:00 +2°C° 0 mm 5 mps 713 mmHg 66%
    21:00 +1°C° 0 mm 4 mps 713 mmHg 68%
    22:00 +1°C° 0 mm 3 mps 713 mmHg 70%
    23:00 +1°C° 0 mm 3 mps 713 mmHg 70%

    Day after tomorrow, 1 March, Sunday

    Time Temperature Precipitation Wind Pressure Humidity
    00:00 +2°C° 0 mm 2 mps 713 mmHg 70%
    01:00 +2°C° 0 mm 2 mps 713 mmHg 70%
    02:00 +2°C° 0 mm 2 mps 714 mmHg 69%
    03:00 +3°C° 0 mm 1 mps 714 mmHg 68%
    04:00 +4°C° 0 mm 1 mps 714 mmHg 67%
    05:00 +4°C° 0.1 mm 1 mps 715 mmHg 69%
    06:00 +4°C° 0.1 mm 1 mps 715 mmHg 71%
    07:00 +3°C° 0.1 mm 0 mps 715 mmHg 73%
    08:00 +5°C° 0.2 mm 1 mps 715 mmHg 73%
    09:00 +6°C° 0.2 mm 1 mps 716 mmHg 73%
    10:00 +7°C° 0.2 mm 1 mps 716 mmHg 72%
    11:00 +7°C° 0.1 mm 1 mps 716 mmHg 74%
    12:00 +7°C° 0.1 mm 1 mps 716 mmHg 76%
    13:00 +6°C° 0.1 mm 1 mps 715 mmHg 78%
    14:00 +6°C° 0.5 mm 1 mps 715 mmHg 83%
    15:00 +5°C° 0.5 mm 1 mps 714 mmHg 87%
    16:00 +4°C° 0.5 mm 0 mps 714 mmHg 91%
    17:00 +5°C° 0.3 mm 1 mps 714 mmHg 93%
    18:00 +5°C° 0.3 mm 1 mps 713 mmHg 94%
    19:00 +5°C° 0.3 mm 1 mps 713 mmHg 95%
    20:00 +5°C° 0.2 mm 1 mps 713 mmHg 96%
    21:00 +5°C° 0.2 mm 1 mps 712 mmHg 97%
    22:00 +5°C° 0.2 mm 1 mps 711 mmHg 97%
    23:00 +5°C° 0.1 mm 1 mps 711 mmHg 97%

    2 March, Monday

    Time Temperature Precipitation Wind Pressure Humidity
    00:00 +5°C° 0.1 mm 2 mps 710 mmHg 97%
    01:00 +5°C° 0.1 mm 2 mps 709 mmHg 97%
    02:00 +4°C° 0 mm 2 mps 709 mmHg 96%
    03:00 +4°C° 0 mm 2 mps 709 mmHg 95%
    04:00 +3°C° 0 mm 2 mps 708 mmHg 95%
    05:00 +3°C° 0 mm 2 mps 708 mmHg 93%
    06:00 +3°C° 0 mm 2 mps 709 mmHg 91%
    07:00 +3°C° 0 mm 2 mps 709 mmHg 89%
    08:00 +5°C° 0 mm 2 mps 710 mmHg 83%
    09:00 +6°C° 0 mm 2 mps 710 mmHg 76%
    10:00 +7°C° 0 mm 3 mps 710 mmHg 69%
    11:00 +8°C° 0 mm 3 mps 711 mmHg 64%
    12:00 +8°C° 0 mm 2 mps 711 mmHg 60%
    13:00 +9°C° 0 mm 2 mps 711 mmHg 55%
    14:00 +9°C° 0 mm 2 mps 711 mmHg 57%
    15:00 +9°C° 0 mm 2 mps 711 mmHg 58%
    16:00 +9°C° 0 mm 2 mps 711 mmHg 60%
    17:00 +8°C° 0 mm 2 mps 711 mmHg 67%
    18:00 +7°C° 0 mm 2 mps 711 mmHg 74%
    19:00 +6°C° 0 mm 2 mps 711 mmHg 81%
    20:00 +4°C° 0 mm 3 mps 711 mmHg 85%
    21:00 +4°C° 0 mm 3 mps 711 mmHg 88%
    22:00 +4°C° 0 mm 3 mps 711 mmHg 91%
    23:00 +4°C° 0 mm 3 mps 710 mmHg 91%

    3 March, Tuesday

    Time Temperature Precipitation Wind Pressure Humidity
    00:00 +4°C° 0 mm 3 mps 710 mmHg 91%
    01:00 +4°C° 0 mm 3 mps 710 mmHg 90%
    02:00 +5°C° 0.6 mm 2 mps 709 mmHg 92%
    03:00 +5°C° 0.6 mm 2 mps 709 mmHg 94%
    04:00 +6°C° 0.6 mm 1 mps 708 mmHg 95%
    05:00 +5°C° 2.6 mm 2 mps 709 mmHg 95%
    06:00 +4°C° 2.6 mm 2 mps 709 mmHg 95%
    07:00 +3°C° 2.6 mm 3 mps 709 mmHg 96%
    08:00 +3°C° 1.3 mm 4 mps 710 mmHg 90%
    09:00 +4°C° 1.3 mm 4 mps 710 mmHg 85%
    10:00 +3°C° 1.3 mm 5 mps 711 mmHg 80%
    11:00 +5°C° 0 mm 5 mps 711 mmHg 74%
    12:00 +5°C° 0 mm 5 mps 712 mmHg 68%
    13:00 +6°C° 0 mm 5 mps 712 mmHg 62%
    14:00 +5°C° 0 mm 5 mps 712 mmHg 62%
    15:00 +5°C° 0 mm 5 mps 712 mmHg 62%
    16:00 +5°C° 0 mm 5 mps 712 mmHg 62%
    17:00 +3°C° 0 mm 5 mps 713 mmHg 65%
    18:00 +3°C° 0 mm 4 mps 713 mmHg 68%
    19:00 +1°C° 0 mm 4 mps 714 mmHg 71%
    20:00 +1°C° 0 mm 4 mps 714 mmHg 71%
    21:00 +1°C° 0 mm 4 mps 715 mmHg 70%
    22:00 +1°C° 0 mm 5 mps 715 mmHg 70%
    23:00 +1°C° 0 mm 5 mps 715 mmHg 70%

    4 March, Wednesday

    Time Temperature Precipitation Wind Pressure Humidity
    00:00 +1°C° 0 mm 5 mps 715 mmHg 70%
    01:00 +1°C° 0 mm 5 mps 715 mmHg 69%
    02:00 +1°C° 0 mm 5 mps 715 mmHg 69%
    03:00 +1°C° 0 mm 6 mps 715 mmHg 69%
    04:00 +1°C° 0 mm 6 mps 715 mmHg 69%
    05:00 -1°C° 0 mm 6 mps 716 mmHg 69%
    06:00 -1°C° 0 mm 6 mps 716 mmHg 69%
    07:00 -1°C° 0 mm 6 mps 716 mmHg 69%
    08:00 0°C° 0 mm 7 mps 716 mmHg 68%
    09:00 0°C° 0 mm 7 mps 717 mmHg 66%
    10:00 0°C° 0 mm 7 mps 717 mmHg 65%
    11:00 +2°C° 0 mm 7 mps 717 mmHg 64%
    12:00 +2°C° 0 mm 7 mps 717 mmHg 63%
    13:00 +3°C° 0 mm 7 mps 717 mmHg 62%
    14:00 +3°C° 0 mm 7 mps 717 mmHg 63%
    15:00 +3°C° 0 mm 6 mps 717 mmHg 64%
    16:00 +3°C° 0 mm 6 mps 717 mmHg 65%
    17:00 +2°C° 0 mm 5 mps 718 mmHg 68%
    18:00 +1°C° 0 mm 4 mps 718 mmHg 72%
    19:00 +1°C° 0 mm 3 mps 718 mmHg 75%
    20:00 0°C° 0 mm 3 mps 718 mmHg 76%
    21:00 0°C° 0 mm 3 mps 718 mmHg 77%
    22:00 -1°C° 0 mm 2 mps 719 mmHg 78%
    23:00 -1°C° 0 mm 2 mps 718 mmHg 77%
    Show more